User: anonymous   Login
Location: Peebles
(55.6412°N, 3.1714°W)
Time: 16:18:34
(UTC+00:00)
Language:

deb Kosmos-1275 - Orbit

View from above orbital plane
View from above orbital plane
View from above satellite
View from above satellite

Ground track
Ground track

The orbit data is extracted from the following two-line orbital elements,

1 12950U 81053EE  23344.72410921  .00000995  00000-0  50654-3 0  9992
2 12950  83.0127  81.7211 0054806 162.8888 324.6904 14.14135310170610
Epoch (UTC): 10 December 2023 17:22:43
Eccentricity: 0.0054806
inclination: 83.0127°
perigee height: 805 km
apogee height: 885 km
right ascension of ascending node: 81.7211°
argument of perigee: 162.8888°
revolutions per day: 14.14135310
mean anomaly at epoch: 324.6904°
orbit number at epoch: 17061

The dashed part of the orbit path shows where the satellite is in the earth's shadow,  

DLR